P/2007 H3 ( Garradd )

Japanese version
Home page
Updated on April 4, 2008

---------------------------------------------------------------------

* Profile

Discovery Date April 22, 2007
Magnitude 17.4 mag
Discoverer G. J. Garradd (Siding Spring)

* Orbital Elements

Epoch 2007 Aug. 8.0 TT = JDT 2454320.5
T 2007 Aug. 15.32802 TT                                 MPC
q   1.8293147            (2000.0)            P               Q
n   0.15042863     Peri.  350.14668     -0.26271457     +0.86700207
a   3.5014590      Node   263.65746     -0.85372343     -0.41335587
e   0.4775564      Incl.   25.21602     -0.44959688     +0.27828822
P   6.55

* Finding Charts

* Magnitudes Graph

        m1 = 14.0 + 5 log d + 10.0 log r

---------------------------------------------------------------------

The orbital elements are published on M.P.E.C. 2007-O21.
The charts are made with StellaNavigator Ver.2.0 for Windows (AstroArts / ASCII).
The magnitudes graphs are made with Comet for Windows.

---------------------------------------------------------------------

Copyright(C) Seiichi Yoshida (comet@aerith.net). All rights reserved.